Location: ?????
(33.6267°N, 35.4675°E)
Time: 21:19:30
(UTC+00:00)

ATLAS 5 CENTAUR R/B - Pass Details

Date: 27 February 2020
Orbit: 548 x 1111 km, 63.4° (Epoch: 03 April)

Event Time Altitude Azimuth Distance (km) Brightness Sun altitude
Rises 02:45:46 0° 175° (S) 2,697 4.9 -18.3°
Reaches altitude 10° 02:48:23 10° 157° (SSE) 1,814 4.2 -17.7°
Maximum altitude 02:51:17 19° 111° (ESE) 1,349 4.2 -17.1°
Drops below altitude 10° 02:54:19 10° 64° (ENE) 1,901 5.1 -16.5°
Sets 02:57:08 0° 47° (NE) 2,876 5.8 -15.9°
